• In Italy
  • List of Countries
  • For 7 days
  • Water Temperature
  • Satellite Maps
  • Weather Map
  • Weather Widgets
  • user-avatar
    Login

    Hourly Weather Jewłach

    Today, 22 July, Saturday

    Time Temperature Precipitation Wind Pressure Humidity
    00:00 +30°C° 0 mm 3 mps 758 mmHg 27%
    01:00 +30°C° 0 mm 2 mps 758 mmHg 28%
    02:00 +29°C° 0 mm 2 mps 758 mmHg 29%
    03:00 +29°C° 0 mm 2 mps 758 mmHg 29%
    04:00 +29°C° 0 mm 2 mps 758 mmHg 30%
    05:00 +30°C° 0 mm 2 mps 758 mmHg 30%
    06:00 +30°C° 0 mm 1 mps 759 mmHg 30%
    07:00 +32°C° 0 mm 2 mps 758 mmHg 27%
    08:00 +35°C° 0 mm 2 mps 758 mmHg 24%
    09:00 +37°C° 0 mm 2 mps 758 mmHg 21%
    10:00 +38°C° 0 mm 3 mps 758 mmHg 20%
    11:00 +39°C° 0 mm 3 mps 757 mmHg 18%
    12:00 +42°C° 0 mm 4 mps 757 mmHg 16%
    13:00 +42°C° 0 mm 4 mps 757 mmHg 15%
    14:00 +43°C° 0 mm 4 mps 756 mmHg 15%
    15:00 +44°C° 0 mm 4 mps 756 mmHg 14%
    16:00 +43°C° 0 mm 5 mps 756 mmHg 15%
    17:00 +43°C° 0 mm 5 mps 756 mmHg 16%
    18:00 +42°C° 0 mm 5 mps 756 mmHg 17%
    19:00 +40°C° 0 mm 4 mps 756 mmHg 19%
    20:00 +36°C° 0 mm 4 mps 756 mmHg 21%
    21:00 +34°C° 0 mm 3 mps 757 mmHg 23%
    22:00 +33°C° 0 mm 3 mps 756 mmHg 25%
    23:00 +31°C° 0 mm 2 mps 756 mmHg 26%

    Tomorrow, 23 July, Sunday

    Time Temperature Precipitation Wind Pressure Humidity
    00:00 +30°C° 0 mm 2 mps 756 mmHg 28%
    01:00 +30°C° 0 mm 2 mps 756 mmHg 29%
    02:00 +29°C° 0 mm 1 mps 756 mmHg 29%
    03:00 +29°C° 0 mm 1 mps 756 mmHg 30%
    04:00 +29°C° 0 mm 1 mps 756 mmHg 29%
    05:00 +30°C° 0 mm 2 mps 756 mmHg 29%
    06:00 +30°C° 0 mm 2 mps 756 mmHg 29%
    07:00 +32°C° 0 mm 2 mps 756 mmHg 25%
    08:00 +35°C° 0 mm 2 mps 755 mmHg 21%
    09:00 +37°C° 0 mm 3 mps 755 mmHg 18%
    10:00 +38°C° 0 mm 2 mps 754 mmHg 16%
    11:00 +39°C° 0 mm 2 mps 754 mmHg 15%
    12:00 +40°C° 0 mm 2 mps 754 mmHg 14%
    13:00 +41°C° 0 mm 2 mps 753 mmHg 13%
    14:00 +42°C° 0 mm 2 mps 753 mmHg 13%
    15:00 +44°C° 0 mm 3 mps 752 mmHg 12%
    16:00 +43°C° 0 mm 3 mps 752 mmHg 13%
    17:00 +43°C° 0 mm 3 mps 752 mmHg 14%
    18:00 +43°C° 0 mm 3 mps 752 mmHg 14%
    19:00 +39°C° 0 mm 3 mps 753 mmHg 16%
    20:00 +37°C° 0 mm 3 mps 754 mmHg 18%
    21:00 +35°C° 0 mm 3 mps 755 mmHg 20%
    22:00 +34°C° 0 mm 3 mps 755 mmHg 23%
    23:00 +32°C° 0 mm 2 mps 755 mmHg 25%

    Day after tomorrow, 24 July, Monday

    Time Temperature Precipitation Wind Pressure Humidity
    00:00 +31°C° 0 mm 2 mps 755 mmHg 28%
    01:00 +31°C° 0 mm 2 mps 755 mmHg 29%
    02:00 +30°C° 0 mm 1 mps 755 mmHg 30%
    03:00 +29°C° 0 mm 1 mps 755 mmHg 31%
    04:00 +30°C° 0 mm 1 mps 756 mmHg 31%
    05:00 +30°C° 0 mm 1 mps 756 mmHg 31%
    06:00 +30°C° 0 mm 1 mps 756 mmHg 30%
    07:00 +32°C° 0 mm 2 mps 756 mmHg 28%
    08:00 +35°C° 0 mm 2 mps 756 mmHg 25%
    09:00 +37°C° 0 mm 2 mps 756 mmHg 23%
    10:00 +38°C° 0 mm 3 mps 755 mmHg 21%
    11:00 +40°C° 0 mm 4 mps 755 mmHg 20%
    12:00 +42°C° 0 mm 4 mps 754 mmHg 18%
    13:00 +42°C° 0 mm 5 mps 754 mmHg 18%
    14:00 +43°C° 0 mm 5 mps 754 mmHg 18%
    15:00 +44°C° 0 mm 6 mps 753 mmHg 18%
    16:00 +42°C° 0 mm 6 mps 753 mmHg 19%
    17:00 +42°C° 0 mm 6 mps 753 mmHg 20%
    18:00 +41°C° 0 mm 6 mps 753 mmHg 22%
    19:00 +39°C° 0 mm 6 mps 754 mmHg 26%
    20:00 +36°C° 0 mm 5 mps 754 mmHg 30%
    21:00 +33°C° 0 mm 5 mps 755 mmHg 34%
    22:00 +32°C° 0 mm 4 mps 755 mmHg 37%
    23:00 +30°C° 0 mm 3 mps 755 mmHg 41%

    25 July, Tuesday

    Time Temperature Precipitation Wind Pressure Humidity
    00:00 +29°C° 0 mm 3 mps 755 mmHg 44%
    01:00 +29°C° 0 mm 2 mps 755 mmHg 45%
    02:00 +28°C° 0 mm 2 mps 755 mmHg 46%
    03:00 +28°C° 0 mm 2 mps 755 mmHg 47%
    04:00 +28°C° 0 mm 1 mps 755 mmHg 46%
    05:00 +29°C° 0 mm 1 mps 755 mmHg 45%
    06:00 +29°C° 0 mm 1 mps 755 mmHg 44%
    07:00 +31°C° 0 mm 1 mps 754 mmHg 39%
    08:00 +33°C° 0 mm 1 mps 754 mmHg 35%
    09:00 +35°C° 0 mm 2 mps 754 mmHg 31%
    10:00 +37°C° 0 mm 2 mps 753 mmHg 28%
    11:00 +38°C° 0 mm 2 mps 753 mmHg 25%
    12:00 +40°C° 0 mm 2 mps 752 mmHg 22%
    13:00 +40°C° 0 mm 2 mps 752 mmHg 21%
    14:00 +41°C° 0 mm 2 mps 751 mmHg 20%
    15:00 +41°C° 0 mm 2 mps 751 mmHg 18%
    16:00 +41°C° 0 mm 2 mps 751 mmHg 19%
    17:00 +41°C° 0 mm 2 mps 751 mmHg 19%
    18:00 +41°C° 0 mm 2 mps 751 mmHg 19%
    19:00 +39°C° 0 mm 3 mps 752 mmHg 22%
    20:00 +36°C° 0 mm 3 mps 752 mmHg 25%
    21:00 +34°C° 0 mm 3 mps 753 mmHg 28%
    22:00 +33°C° 0 mm 3 mps 753 mmHg 32%
    23:00 +31°C° 0 mm 2 mps 753 mmHg 36%

    26 July, Wednesday

    Time Temperature Precipitation Wind Pressure Humidity
    00:00 +30°C° 0 mm 2 mps 753 mmHg 40%
    01:00 +30°C° 0 mm 2 mps 753 mmHg 41%
    02:00 +29°C° 0 mm 1 mps 753 mmHg 43%
    03:00 +29°C° 0 mm 1 mps 753 mmHg 44%
    04:00 +29°C° 0 mm 2 mps 754 mmHg 42%
    05:00 +30°C° 0 mm 2 mps 754 mmHg 39%
    06:00 +30°C° 0 mm 2 mps 754 mmHg 37%
    07:00 +33°C° 0 mm 3 mps 754 mmHg 32%
    08:00 +35°C° 0 mm 3 mps 754 mmHg 26%
    09:00 +37°C° 0 mm 4 mps 753 mmHg 21%
    10:00 +39°C° 0 mm 3 mps 753 mmHg 20%
    11:00 +40°C° 0 mm 3 mps 753 mmHg 19%
    12:00 +42°C° 0 mm 3 mps 753 mmHg 18%
    13:00 +41°C° 0 mm 2 mps 752 mmHg 17%
    14:00 +42°C° 0 mm 2 mps 752 mmHg 17%
    15:00 +43°C° 0 mm 1 mps 752 mmHg 17%
    16:00 +42°C° 0.1 mm 1 mps 752 mmHg 17%
    17:00 +42°C° 0.1 mm 1 mps 753 mmHg 18%
    18:00 +42°C° 0.1 mm 1 mps 753 mmHg 18%
    19:00 +39°C° 0 mm 2 mps 754 mmHg 22%
    20:00 +37°C° 0 mm 3 mps 754 mmHg 27%
    21:00 +35°C° 0 mm 4 mps 755 mmHg 31%
    22:00 +34°C° 0 mm 3 mps 755 mmHg 34%
    23:00 +33°C° 0 mm 3 mps 755 mmHg 37%

    27 July, Thursday

    Time Temperature Precipitation Wind Pressure Humidity
    00:00 +31°C° 0 mm 3 mps 756 mmHg 39%
    01:00 +31°C° 0 mm 2 mps 756 mmHg 40%
    02:00 +30°C° 0 mm 2 mps 756 mmHg 40%
    03:00 +30°C° 0 mm 1 mps 756 mmHg 40%
    04:00 +30°C° 0 mm 1 mps 756 mmHg 40%
    05:00 +31°C° 0 mm 1 mps 757 mmHg 39%
    06:00 +31°C° 0 mm 1 mps 757 mmHg 38%
    07:00 +33°C° 0 mm 1 mps 757 mmHg 34%
    08:00 +35°C° 0 mm 1 mps 757 mmHg 31%
    09:00 +36°C° 0 mm 1 mps 757 mmHg 27%
    10:00 +39°C° 0 mm 2 mps 756 mmHg 26%
    11:00 +40°C° 0 mm 2 mps 756 mmHg 24%
    12:00 +41°C° 0 mm 2 mps 755 mmHg 22%
    13:00 +42°C° 0 mm 2 mps 755 mmHg 21%
    14:00 +43°C° 0 mm 3 mps 755 mmHg 20%
    15:00 +44°C° 0 mm 3 mps 755 mmHg 19%
    16:00 +44°C° 0 mm 3 mps 755 mmHg 19%
    17:00 +43°C° 0 mm 4 mps 755 mmHg 20%
    18:00 +43°C° 0 mm 4 mps 755 mmHg 20%
    19:00 +41°C° 0 mm 4 mps 756 mmHg 23%
    20:00 +37°C° 0 mm 5 mps 756 mmHg 26%
    21:00 +35°C° 0 mm 5 mps 757 mmHg 29%
    22:00 +34°C° 0 mm 4 mps 757 mmHg 32%
    23:00 +33°C° 0 mm 3 mps 757 mmHg 34%
    Show more